Voltar ao catálogo

QIANFAN-74

AtivoComunicaçõesPO
NORAD 63160·PAYLOAD·🇨🇳 China

Lançado Mar 11, 2025 de Wenchang Space Launch Site

Loading…

Próximas Passagens (próximas 24 horas)

TLE

AtualizadoSource: Space-Track

Época: Sep 14, 2026, 13:08 UTC

1 63160U 25046B   26257.54743805 -.00000006  00000-0 -27328-4 0  9995
2 63160  88.9653 291.2778 0001821  96.1980 263.9378 13.51018699 84719

Acompanhe QIANFAN-74 em tempo real com AllMySat

Download on the App Store